RYR512 EDJA-LFSB

Flight info

Callsign RYR512
Flight time 0h 44m
Altitude 23000
Route UMTEX2B/06 UMTEX Y100 TRA L856 HOC/N0392F190 Y51 LEPLA/N0388F180 Z600 LUMEL
Aircraft B738/M-SDE2E3FGHIRWXY/LB1

Departure

Time 2026-04-21 18:38
Airport Memmingen Allgau Airport (EDJA)

Arrival

Time 2026-04-21 19:22
Airport EuroAirport Basel–Mulhouse–Freiburg (LFSB)
Time Latitude Longitude Altitude Speed Heading
2026-04-21 18:19 47.98866 10.23235 2078 ft 0 kts 49°
2026-04-21 18:27 47.98860 10.23226 2076 ft 3 kts 35°
2026-04-21 18:27 47.98851 10.23218 2077 ft 0 kts 16°
2026-04-21 18:27 47.98844 10.23215 2078 ft 2 kts 22°
2026-04-21 18:27 47.98830 10.23206 2078 ft 0 kts 30°
2026-04-21 18:28 47.98826 10.23202 2078 ft 2 kts 30°
2026-04-21 18:28 47.98811 10.23189 2077 ft 2 kts 30°
2026-04-21 18:28 47.98797 10.23173 2078 ft 3 kts 58°
2026-04-21 18:28 47.98793 10.23163 2078 ft 0 kts 71°
2026-04-21 18:32 47.98794 10.23163 2078 ft 0 kts 71°
2026-04-21 18:32 47.98799 10.23180 2078 ft 3 kts 61°
2026-04-21 18:32 47.98813 10.23224 2076 ft 6 kts 67°
2026-04-21 18:33 47.98831 10.23296 2078 ft 9 kts 71°
2026-04-21 18:33 47.98850 10.23379 2076 ft 7 kts 70°
2026-04-21 18:33 47.98871 10.23464 2076 ft 10 kts 70°
2026-04-21 18:33 47.98889 10.23539 2077 ft 6 kts 70°
2026-04-21 18:34 47.98904 10.23607 2076 ft 8 kts 76°
2026-04-21 18:34 47.98898 10.23697 2077 ft 10 kts 123°
2026-04-21 18:34 47.98835 10.23761 2075 ft 12 kts 176°
2026-04-21 18:34 47.98772 10.23675 2078 ft 14 kts 241°
2026-04-21 18:35 47.98738 10.23588 2077 ft 15 kts 240°
2026-04-21 18:35 47.98650 10.23361 2077 ft 23 kts 240°
2026-04-21 18:35 47.98562 10.23138 2076 ft 27 kts 239°
2026-04-21 18:35 47.98469 10.22911 2079 ft 25 kts 234°
2026-04-21 18:36 47.98409 10.22800 2080 ft 6 kts 225°
2026-04-21 18:36 47.98399 10.22775 2080 ft 1 kts 277°
2026-04-21 18:36 47.98406 10.22771 2080 ft 1 kts 345°
2026-04-21 18:36 47.98417 10.22785 2080 ft 3 kts 54°
2026-04-21 18:37 47.98470 10.22916 2079 ft 41 kts 59°
2026-04-21 18:37 47.98737 10.23589 2077 ft 108 kts 60°
2026-04-21 18:37 47.99220 10.24810 2103 ft 159 kts 58°
2026-04-21 18:37 47.99823 10.26330 2582 ft 178 kts 60°
2026-04-21 18:38 48.00444 10.27889 3244 ft 177 kts 60°
2026-04-21 18:38 48.01078 10.29459 3771 ft 177 kts 60°
2026-04-21 18:38 48.01754 10.31171 4004 ft 203 kts 60°
2026-04-21 18:38 48.02470 10.32975 4757 ft 203 kts 60°
2026-04-21 18:39 48.03211 10.34838 5249 ft 215 kts 62°
2026-04-21 18:39 48.03612 10.36996 5843 ft 221 kts 92°
2026-04-21 18:39 48.03160 10.39189 6515 ft 226 kts 121°
2026-04-21 18:39 48.01995 10.40764 7142 ft 236 kts 152°
2026-04-21 18:40 48.00365 10.41223 7881 ft 245 kts 184°
2026-04-21 18:40 47.98766 10.40370 8693 ft 251 kts 210°
2026-04-21 18:40 47.97799 10.39352 9234 ft 253 kts 217°
2026-04-21 18:40 47.96210 10.36864 9947 ft 251 kts 248°
2026-04-21 18:41 47.95736 10.34315 10117 ft 260 kts 258°
2026-04-21 18:41 47.95409 10.31694 10129 ft 259 kts 260°
2026-04-21 18:41 47.95086 10.28937 10161 ft 282 kts 260°
2026-04-21 18:41 47.94737 10.26018 10143 ft 288 kts 260°
2026-04-21 18:42 47.94374 10.23064 10136 ft 288 kts 259°
2026-04-21 18:42 47.94007 10.20160 10119 ft 287 kts 259°
2026-04-21 18:42 47.93633 10.17236 10122 ft 286 kts 259°
2026-04-21 18:42 47.93254 10.14308 10151 ft 287 kts 259°
2026-04-21 18:43 47.92865 10.11321 10316 ft 307 kts 259°
2026-04-21 18:43 47.92439 10.08064 10509 ft 331 kts 259°
2026-04-21 18:43 47.91974 10.04571 10683 ft 353 kts 259°
2026-04-21 18:43 47.91470 10.00874 10957 ft 370 kts 259°
2026-04-21 18:44 47.90956 9.97127 11558 ft 375 kts 259°
2026-04-21 18:44 47.90429 9.93281 12341 ft 376 kts 259°
2026-04-21 18:44 47.89906 9.89461 13122 ft 379 kts 259°
2026-04-21 18:44 47.89374 9.85591 13898 ft 382 kts 260°
2026-04-21 18:45 47.88729 9.81752 14580 ft 386 kts 254°
2026-04-21 18:45 47.87806 9.77967 15335 ft 388 kts 251°
2026-04-21 18:45 47.86823 9.74300 15970 ft 393 kts 250°
2026-04-21 18:45 47.85802 9.70412 16694 ft 396 kts 251°
2026-04-21 18:46 47.84826 9.66557 17412 ft 398 kts 251°
2026-04-21 18:46 47.83875 9.62715 18052 ft 403 kts 253°
2026-04-21 18:46 47.83162 9.58636 18638 ft 405 kts 261°
2026-04-21 18:46 47.82667 9.54496 19243 ft 407 kts 262°
2026-04-21 18:47 47.82219 9.50359 19818 ft 409 kts 263°
2026-04-21 18:47 47.81766 9.46152 20396 ft 412 kts 263°
2026-04-21 18:47 47.81294 9.41911 20965 ft 415 kts 263°
2026-04-21 18:47 47.80810 9.37715 21524 ft 417 kts 262°
2026-04-21 18:48 47.80308 9.33474 22056 ft 420 kts 262°
2026-04-21 18:48 47.79788 9.29169 22120 ft 422 kts 262°
2026-04-21 18:48 47.79262 9.24867 22134 ft 420 kts 262°
2026-04-21 18:48 47.78738 9.20604 22143 ft 421 kts 262°
2026-04-21 18:49 47.78207 9.16306 22143 ft 421 kts 262°
2026-04-21 18:49 47.77682 9.12073 22141 ft 420 kts 262°
2026-04-21 18:49 47.77329 9.09229 22141 ft 420 kts 262°
2026-04-21 18:49 47.76618 9.03512 22143 ft 420 kts 262°
2026-04-21 18:50 47.76094 8.99317 22145 ft 420 kts 262°
2026-04-21 18:50 47.75559 8.95045 22144 ft 420 kts 262°
2026-04-21 18:50 47.75023 8.90777 22144 ft 420 kts 262°
2026-04-21 18:50 47.74485 8.86506 22144 ft 420 kts 262°
2026-04-21 18:51 47.73949 8.82267 22142 ft 420 kts 262°
2026-04-21 18:51 47.73407 8.77990 22138 ft 420 kts 262°
2026-04-21 18:51 47.72862 8.73708 22129 ft 420 kts 262°
2026-04-21 18:51 47.72323 8.69479 22129 ft 420 kts 262°
2026-04-21 18:52 47.71774 8.65192 22127 ft 420 kts 262°
2026-04-21 18:52 47.71231 8.60958 22119 ft 420 kts 262°
2026-04-21 18:52 47.70683 8.56701 22123 ft 420 kts 262°
2026-04-21 18:52 47.70140 8.52483 22124 ft 420 kts 262°
2026-04-21 18:53 47.69588 8.48222 22120 ft 419 kts 262°
2026-04-21 18:53 47.68987 8.43977 22117 ft 420 kts 258°
2026-04-21 18:53 47.68012 8.39862 22126 ft 423 kts 250°
2026-04-21 18:53 47.66849 8.35834 22121 ft 423 kts 250°
2026-04-21 18:54 47.65675 8.31832 22116 ft 420 kts 250°
2026-04-21 18:54 47.64539 8.27973 22104 ft 401 kts 250°
2026-04-21 18:54 47.63449 8.24246 22099 ft 384 kts 250°
2026-04-21 18:54 47.62425 8.20720 22109 ft 370 kts 250°
2026-04-21 18:55 47.61753 8.18389 22112 ft 369 kts 250°
2026-04-21 18:55 47.60411 8.13717 22129 ft 371 kts 251°
2026-04-21 18:55 47.59396 8.10182 22133 ft 373 kts 251°
2026-04-21 18:55 47.58375 8.06635 22123 ft 374 kts 251°
2026-04-21 18:56 47.57350 8.03085 22114 ft 373 kts 251°
2026-04-21 18:56 47.56328 7.99549 22105 ft 372 kts 251°
2026-04-21 18:56 47.55316 7.96057 22111 ft 371 kts 251°
2026-04-21 18:56 47.54295 7.92539 22112 ft 370 kts 251°
2026-04-21 18:57 47.53288 7.89071 22104 ft 369 kts 251°
2026-04-21 18:57 47.52270 7.85567 21827 ft 369 kts 251°
2026-04-21 18:57 47.51273 7.82146 21562 ft 365 kts 251°
2026-04-21 18:57 47.50267 7.78698 21285 ft 364 kts 251°
2026-04-21 18:58 47.49263 7.75257 21040 ft 363 kts 251°
2026-04-21 18:58 47.48269 7.71856 20781 ft 363 kts 251°
2026-04-21 18:58 47.47260 7.68413 20511 ft 363 kts 251°
2026-04-21 18:58 47.46168 7.65028 20255 ft 365 kts 245°
2026-04-21 18:59 47.44869 7.61841 20020 ft 366 kts 242°
2026-04-21 18:59 47.43496 7.58649 19765 ft 366 kts 242°
2026-04-21 18:59 47.42151 7.55484 19506 ft 365 kts 242°
2026-04-21 18:59 47.40813 7.52291 19261 ft 365 kts 242°
2026-04-21 19:00 47.39483 7.49087 19015 ft 364 kts 242°
2026-04-21 19:00 47.38174 7.45925 18755 ft 363 kts 242°
2026-04-21 19:00 47.36856 7.42749 18493 ft 363 kts 242°
2026-04-21 19:00 47.35640 7.39498 18237 ft 359 kts 252°
2026-04-21 19:01 47.35195 7.35966 17934 ft 352 kts 272°
2026-04-21 19:01 47.35532 7.32450 17641 ft 344 kts 290°
2026-04-21 19:01 47.36437 7.29179 17359 ft 341 kts 296°
2026-04-21 19:01 47.37439 7.26005 17085 ft 341 kts 296°
2026-04-21 19:02 47.38435 7.22851 16817 ft 341 kts 296°
2026-04-21 19:02 47.39413 7.19670 16555 ft 340 kts 295°
2026-04-21 19:02 47.40381 7.16472 16324 ft 339 kts 295°
2026-04-21 19:02 47.41323 7.13327 16083 ft 339 kts 295°
2026-04-21 19:03 47.42267 7.10132 15835 ft 338 kts 295°
2026-04-21 19:03 47.43205 7.06945 15599 ft 337 kts 295°
2026-04-21 19:03 47.44140 7.03772 15354 ft 336 kts 295°
2026-04-21 19:03 47.45073 7.00604 15108 ft 335 kts 295°
2026-04-21 19:04 47.46003 6.97445 14879 ft 334 kts 295°
2026-04-21 19:04 47.46944 6.94372 14654 ft 332 kts 301°
2026-04-21 19:04 47.48485 6.91833 14063 ft 337 kts 324°
2026-04-21 19:04 47.50607 6.90277 13106 ft 350 kts 344°
2026-04-21 19:05 47.53051 6.89673 12171 ft 358 kts 353°
2026-04-21 19:05 47.55552 6.89345 11333 ft 363 kts 353°
2026-04-21 19:05 47.57988 6.88957 11126 ft 349 kts 351°
2026-04-21 19:05 47.60367 6.88529 10856 ft 338 kts 353°
2026-04-21 19:06 47.62687 6.88313 10597 ft 329 kts 360°
2026-04-21 19:06 47.64870 6.89070 10334 ft 318 kts 24°
2026-04-21 19:06 47.66597 6.90931 10141 ft 304 kts 46°
2026-04-21 19:06 47.67731 6.93471 10088 ft 286 kts 66°
2026-04-21 19:07 47.68204 6.96239 10077 ft 270 kts 85°
2026-04-21 19:07 47.68093 6.98946 10087 ft 264 kts 101°
2026-04-21 19:07 47.67791 7.00707 10092 ft 263 kts 109°
2026-04-21 19:07 47.66936 7.03087 10081 ft 262 kts 130°
2026-04-21 19:08 47.65880 7.05299 9995 ft 263 kts 114°
2026-04-21 19:08 47.65267 7.07807 9989 ft 260 kts 102°
2026-04-21 19:08 47.65019 7.10442 9994 ft 256 kts 94°
2026-04-21 19:08 47.64901 7.13081 10005 ft 257 kts 95°
2026-04-21 19:09 47.64670 7.15720 9999 ft 257 kts 94°
2026-04-21 19:09 47.64679 7.18339 9845 ft 260 kts 83°
2026-04-21 19:09 47.65029 7.21021 9441 ft 267 kts 72°
2026-04-21 19:09 47.65711 7.23566 9037 ft 263 kts 62°
2026-04-21 19:10 47.66679 7.25821 8640 ft 259 kts 52°
2026-04-21 19:10 47.67907 7.27744 8245 ft 255 kts 41°
2026-04-21 19:10 47.69352 7.29264 7856 ft 252 kts 30°
2026-04-21 19:10 47.70930 7.30308 7474 ft 250 kts 20°
2026-04-21 19:11 47.72632 7.30877 7106 ft 251 kts
2026-04-21 19:11 47.74396 7.30934 6775 ft 255 kts 359°
2026-04-21 19:11 47.76147 7.30484 6443 ft 260 kts 348°
2026-04-21 19:11 47.77874 7.29640 6110 ft 261 kts 343°
2026-04-21 19:12 47.79543 7.28650 6035 ft 252 kts 342°
2026-04-21 19:12 47.81155 7.27727 5998 ft 243 kts 343°
2026-04-21 19:12 47.82710 7.26835 6014 ft 241 kts 343°
2026-04-21 19:12 47.84284 7.25976 6019 ft 238 kts 348°
2026-04-21 19:13 47.85893 7.25540 6017 ft 233 kts
2026-04-21 19:13 47.87439 7.25952 6086 ft 220 kts 28°
2026-04-21 19:13 47.88693 7.27243 5958 ft 222 kts 50°
2026-04-21 19:13 47.89510 7.29153 6003 ft 220 kts 70°
2026-04-21 19:14 47.89672 7.31470 5763 ft 234 kts 96°
2026-04-21 19:14 47.89138 7.33726 5792 ft 233 kts 120°
2026-04-21 19:14 47.88048 7.35502 5735 ft 232 kts 136°
2026-04-21 19:14 47.86687 7.36821 5752 ft 231 kts 154°
2026-04-21 19:15 47.85104 7.37330 5620 ft 238 kts 170°
2026-04-21 19:15 47.83463 7.37508 5673 ft 233 kts 173°
2026-04-21 19:15 47.81859 7.37648 5672 ft 230 kts 173°
2026-04-21 19:15 47.80305 7.38098 5483 ft 226 kts 155°
2026-04-21 19:16 47.78864 7.39025 5302 ft 224 kts 151°
2026-04-21 19:16 47.77509 7.39989 5140 ft 214 kts 150°
2026-04-21 19:16 47.76144 7.40956 4700 ft 218 kts 151°
2026-04-21 19:16 47.74776 7.41913 4328 ft 213 kts 151°
2026-04-21 19:17 47.72149 7.43677 3340 ft 208 kts 153°
2026-04-21 19:17 47.70846 7.44581 2753 ft 208 kts 150°
2026-04-21 19:17 47.69561 7.45533 2298 ft 203 kts 149°
2026-04-21 19:18 47.68295 7.46474 1822 ft 202 kts 152°
2026-04-21 19:18 47.67052 7.47274 1653 ft 189 kts 152°
2026-04-21 19:18 47.65911 7.48065 1480 ft 173 kts 149°
2026-04-21 19:18 47.64889 7.48840 1362 ft 164 kts 150°
2026-04-21 19:19 47.63988 7.49800 1420 ft 155 kts 126°
2026-04-21 19:19 47.63474 7.51114 1443 ft 141 kts 112°
2026-04-21 19:19 47.63095 7.52392 1696 ft 136 kts 108°
2026-04-21 19:19 47.62731 7.53701 1843 ft 139 kts 108°
2026-04-21 19:20 47.62691 7.55040 2014 ft 131 kts 72°
2026-04-21 19:20 47.62916 7.56414 1943 ft 141 kts 76°
2026-04-21 19:20 47.62886 7.57784 1823 ft 141 kts 116°
2026-04-21 19:20 47.62072 7.58573 1831 ft 148 kts 162°
2026-04-21 19:21 47.61011 7.58590 1804 ft 155 kts 183°
2026-04-21 19:21 47.60024 7.57955 1677 ft 159 kts 225°
2026-04-21 19:21 47.59572 7.56507 1339 ft 158 kts 254°
2026-04-21 19:21 47.59308 7.54960 1074 ft 151 kts 256°
2026-04-21 19:22 47.59084 7.53506 899 ft 138 kts 254°
2026-04-21 19:22 47.58901 7.52363 894 ft 69 kts 256°
2026-04-21 19:22 47.58850 7.52053 895 ft 20 kts 256°
2026-04-21 19:22 47.58815 7.51836 892 ft 22 kts 256°
2026-04-21 19:23 47.58826 7.51719 890 ft 12 kts 303°
2026-04-21 19:23 47.58898 7.51675 889 ft 12 kts 351°
2026-04-21 19:23 47.58969 7.51708 889 ft 11 kts 45°
2026-04-21 19:23 47.59025 7.51788 891 ft 11 kts 44°
2026-04-21 19:24 47.59078 7.51865 891 ft 11 kts 44°
2026-04-21 19:24 47.59131 7.51941 890 ft 10 kts 44°
2026-04-21 19:24 47.59182 7.52015 890 ft 10 kts 47°
2026-04-21 19:24 47.59229 7.52089 889 ft 10 kts 46°
2026-04-21 19:25 47.59269 7.52176 887 ft 10 kts 66°
2026-04-21 19:25 47.59297 7.52274 887 ft 10 kts 66°
2026-04-21 19:25 47.59326 7.52368 888 ft 10 kts 64°
2026-04-21 19:25 47.59355 7.52458 888 ft 10 kts 64°
2026-04-21 19:26 47.59386 7.52545 889 ft 9 kts 61°
2026-04-21 19:26 47.59417 7.52628 892 ft 9 kts 61°
2026-04-21 19:26 47.59443 7.52711 894 ft 9 kts 66°
2026-04-21 19:26 47.59468 7.52794 895 ft 9 kts 64°
2026-04-21 19:27 47.59515 7.52848 894 ft 9 kts 13°
2026-04-21 19:27 47.59573 7.52818 892 ft 10 kts 332°
2026-04-21 19:27 47.59638 7.52766 890 ft 11 kts 331°
2026-04-21 19:27 47.59704 7.52716 891 ft 10 kts 334°
2026-04-21 19:28 47.59770 7.52723 890 ft 10 kts 40°
2026-04-21 19:28 47.59774 7.52749 889 ft 3 kts 96°
2026-04-21 19:28 47.59758 7.52772 890 ft 4 kts 158°
2026-04-21 19:28 47.59734 7.52788 890 ft 4 kts 155°
2026-04-21 19:29 47.59711 7.52804 890 ft 4 kts 155°
2026-04-21 19:29 47.59696 7.52814 890 ft 0 kts 154°
2026-04-21 19:29 47.59691 7.52818 890 ft 3 kts 154°
2026-04-21 19:30 47.59662 7.52846 891 ft 6 kts 120°
2026-04-21 19:30 47.59668 7.52892 890 ft 4 kts 56°